Reus, Spain

12:20 AM CET en Noviembre 19, 2017 (GMT +0100)
Reus Air Base

Tiempo Historia de LERS - Noviembre, 2017

Change the Weather History Date:

Miércoles, Noviembre 15, 2017

  Actual Average Record
Temperature  
Temperatura media 48 ° F -  
Temperatura máxima 64 ° F 58 ° F 75 ° F (2015)
Temperatura mínima 33 ° F 43 ° F 32 ° F (2004)
Degree Days  
Grados día de calefacción 16    
Moisture  
Punto de rocío 33 ° F    
Average Humidity 58    
Maximum Humidity 87    
Minimum Humidity 22    
Precipitación  
Precipitación 0.00 pul - - ()
Presión al nivel del mar  
Presión al nivel del mar 30.10 pul    
Viento  
Velocidad del viento 3 mph ()    
Velocidad máxima del viento 8 mph    
Max Gust Speed -    
Visibilidad 12.4 Millas    
Eventos      
Averages and records for this station are not official NWS values.
T = Trace of Precipitation, MM = Missing Value Source: Averaged Metar Reports

Daily Weather History Graph

Daily Weather History Graph

Search for Another Location

Airport or City:

Trip Planner

Search our weather history database for the weather conditions in past years. The results will help you decide how hot, cold, wet, or windy it might be!

Date:

Astronomía

Nov. 15, 2017 Salida Puesta
Hora real 7:43 AM CET 5:36 PM CET
Crepúsculo civil 7:13 AM CET 6:05 PM CET
Crepúsculo náutico 6:40 AM CET 6:39 PM CET
Crepúsculo astronómico 6:07 AM CET 7:11 PM CET
Luna 4:26 AM CET (11/15) 4:25 PM CET (11/15)
Horas de luz 10h 52m
Horas de luz
9h 53m
Creciente menguante, 9% of the Moon is Illuminated
Nov 15
Creciente menguante
Nov 18
Nueva
Nov 26
Cuarto creciente
Dic 3
Luna llena
Dic 10
Cuarto menguante

Hourly Weather History & Observations

Hora (CET) Temp. Vientos helados Punto de rocío Humedad Presión Visibilidad Wind Dir Velocidad del viento Velocidad de ráfagas Precip Eventos Condiciones
12:00 AM 37 ° F - 30 ° F 68% 30.15 pul 19 mi NNE 2.3 mph - -  
12:00 AM 39.2 ° F - 30.2 ° F 70% 30.12 pul 6.2 mi Variable 2.3 mph - N/A   Desconocido
12:30 AM 37.4 ° F - 30.2 ° F 75% 30.12 pul 6.2 mi Norte 2.3 mph - N/A   Desconocido
1:00 AM 36 ° F - 30 ° F 70% 30.14 pul 19 mi NE 5.8 mph - -  
1:00 AM 39.2 ° F 37.0 ° F 30.2 ° F 70% 30.12 pul 6.2 mi NNE 3.5 mph - N/A   Desconocido
1:30 AM 37.4 ° F 33.8 ° F 30.2 ° F 75% 30.12 pul 6.2 mi NNE 4.6 mph - N/A   Desconocido
2:00 AM 37.4 ° F 34.9 ° F 30.2 ° F 75% 30.12 pul 6.2 mi NNE 3.5 mph - N/A   Desconocido
2:30 AM 35.6 ° F 32.8 ° F 30.2 ° F 81% 30.09 pul 6.2 mi NE 3.5 mph - N/A   Desconocido
3:00 AM 34 ° F - 29 ° F 75% 30.13 pul 19 mi ENE 4.6 mph - -  
3:00 AM 33.8 ° F 30.8 ° F 30.2 ° F 87% 30.09 pul 6.2 mi NE 3.5 mph - N/A   Desconocido
3:30 AM 35.6 ° F 32.8 ° F 28.4 ° F 75% 30.09 pul 6.2 mi NE 3.5 mph - N/A   Desconocido
4:00 AM 35 ° F - 28 ° F 68% 30.12 pul 19 mi NNO 3.5 mph - -  
4:00 AM 35.6 ° F - 28.4 ° F 75% 30.09 pul 6.2 mi Variable 1.2 mph - N/A   Desconocido
4:30 AM 33.8 ° F - 28.4 ° F 81% 30.09 pul 6.2 mi Sin viento Sin viento - N/A   Desconocido
5:00 AM 36 ° F - 29 ° F 65% 30.11 pul 19 mi SSE 2.3 mph - -  
5:00 AM 35.6 ° F - 28.4 ° F 75% 30.09 pul 6.2 mi Variable 1.2 mph - N/A   Desconocido
5:30 AM 35.6 ° F 32.8 ° F 28.4 ° F 75% 30.09 pul 6.2 mi ENE 3.5 mph - N/A   Desconocido
6:00 AM 35 ° F - 29 ° F 69% 30.12 pul 19 mi Norte 4.6 mph - -  
6:00 AM 33.8 ° F 30.8 ° F 28.4 ° F 81% 30.09 pul 6.2 mi Norte 3.5 mph - N/A   Desconocido
6:30 AM 33.8 ° F - 28.4 ° F 81% 30.09 pul 6.2 mi Variable 1.2 mph - N/A   Desconocido
7:00 AM 35 ° F - 29 ° F 71% 30.12 pul 19 mi NO 6.9 mph - -   Despejado
7:00 AM 33.8 ° F 30.8 ° F 28.4 ° F 81% 30.09 pul - NO 3.5 mph - N/A   Despejado
7:30 AM 35.6 ° F - 28.4 ° F 75% 30.09 pul - Variable 2.3 mph - N/A   Despejado
8:00 AM 35 ° F - 29 ° F 71% 30.14 pul 19 mi NNO 4.6 mph - -  
8:00 AM 35.6 ° F - 28.4 ° F 75% 30.12 pul - Norte 1.2 mph - N/A   Despejado
8:30 AM 37.4 ° F - 30.2 ° F 75% 30.12 pul - Sin viento Sin viento - N/A   Despejado
9:00 AM 43 ° F - 33 ° F 58% 30.15 pul 14 mi Norte 1.2 mph - -  
9:00 AM 42.8 ° F - 32.0 ° F 66% 30.12 pul - Variable 1.2 mph - N/A   Despejado
9:30 AM 48.2 ° F - 33.8 ° F 58% 30.12 pul - Sin viento Sin viento - N/A   Despejado
10:00 AM 51 ° F - 32 ° F 36% 30.14 pul 19 mi Sin viento Sin viento - -  
10:00 AM 50.0 ° F - 32.0 ° F 50% 30.12 pul - Sin viento Sin viento - N/A   Despejado
10:30 AM 53.6 ° F - 32.0 ° F 44% 30.12 pul - Sin viento Sin viento - N/A   Despejado
11:00 AM 55 ° F - 32 ° F 29% 30.14 pul 16 mi NE 1.2 mph - -  
11:00 AM 55.4 ° F - 32.0 ° F 41% 30.12 pul - Sin viento Sin viento - N/A   Despejado
11:30 AM 55.4 ° F - 32.0 ° F 41% 30.12 pul - Sin viento Sin viento - N/A   Despejado
12:00 PM 58 ° F - 33 ° F 27% 30.12 pul 19 mi Sin viento Sin viento - -  
12:30 PM 59.0 ° F - 32.0 ° F 36% 30.09 pul - Variable 1.2 mph - N/A   Despejado
1:00 PM 60 ° F - 33 ° F 24% 30.09 pul 19 mi Sin viento Sin viento - -   Despejado
1:00 PM 60.8 ° F - 35.6 ° F 39% 30.09 pul - Variable 1.2 mph - N/A   Despejado
1:30 PM 60.8 ° F - 32.0 ° F 34% 30.06 pul - Variable 1.2 mph - N/A   Despejado
2:00 PM 61 ° F - 32 ° F 22% 30.07 pul 19 mi Sin viento Sin viento - -  
2:00 PM 60.8 ° F - 32.0 ° F 34% 30.06 pul - Variable 1.2 mph - N/A   Despejado
2:30 PM 62.6 ° F - 33.8 ° F 34% 30.06 pul - Variable 1.2 mph - N/A   Despejado
3:00 PM 63 ° F - 34 ° F 22% 30.06 pul 17 mi Sur 2.3 mph - -  
3:00 PM 64.4 ° F - 33.8 ° F 32% 30.04 pul - OSO 3.5 mph - N/A   Despejado
3:30 PM 62.6 ° F - 35.6 ° F 37% 30.04 pul - SSO 3.5 mph - N/A   Despejado
4:00 PM 62.6 ° F - 35.6 ° F 37% 30.04 pul - SSO 3.5 mph - N/A   Despejado
4:30 PM 60.8 ° F - 39.2 ° F 45% 30.04 pul - Variable 2.3 mph - N/A   Despejado
5:00 PM 59 ° F - 38 ° F 33% 30.05 pul 19 mi SSO 3.5 mph - -  
5:00 PM 59.0 ° F - 37.4 ° F 45% 30.04 pul - SSO 2.3 mph - N/A   Despejado
5:30 PM 55.4 ° F - 37.4 ° F 51% 30.04 pul - SSO 1.2 mph - N/A   Despejado
6:00 PM 51 ° F - 38 ° F 49% 30.07 pul 19 mi Sin viento Sin viento - -  
6:00 PM 51.8 ° F - 37.4 ° F 58% 30.06 pul - Sin viento Sin viento - N/A   Despejado
6:30 PM 51.8 ° F - 37.4 ° F 58% 30.06 pul - NNE 3.5 mph - N/A   Despejado
7:00 PM 50.0 ° F - 35.6 ° F 58% 30.06 pul - Norte 2.3 mph - N/A   Despejado
7:30 PM 51.8 ° F - 35.6 ° F 54% 30.06 pul - Norte 8.1 mph - N/A   Despejado
8:00 PM 48 ° F - 35 ° F 49% 30.10 pul 17 mi Norte 8.1 mph - -  
8:00 PM 51.8 ° F - 35.6 ° F 54% 30.09 pul - Norte 8.1 mph - N/A   Despejado
8:30 PM 46.4 ° F 45.2 ° F 35.6 ° F 66% 30.09 pul - NNE 3.5 mph - N/A   Despejado
9:00 PM 45 ° F - 35 ° F 59% 30.12 pul 8 mi NNE 4.6 mph - -  
9:00 PM 46.4 ° F 43.5 ° F 37.4 ° F 71% 30.09 pul - NNE 5.8 mph - N/A   Despejado
9:30 PM 46.4 ° F 45.2 ° F 37.4 ° F 71% 30.09 pul - NNE 3.5 mph - N/A   Despejado
10:00 PM 44 ° F - 35 ° F 63% 30.13 pul 9 mi NNE 2.3 mph - -  
10:00 PM 44.6 ° F 41.4 ° F 35.6 ° F 71% 30.12 pul - NNE 5.8 mph - N/A   Despejado
10:30 PM 44.6 ° F 40.7 ° F 35.6 ° F 71% 30.12 pul 6.2 mi NNE 6.9 mph - N/A   Desconocido
11:00 PM 43 ° F - 35 ° F 66% 30.13 pul 19 mi NNE 4.6 mph - -  
11:00 PM 44.6 ° F 40.2 ° F 35.6 ° F 71% 30.12 pul 6.2 mi NNE 8.1 mph - N/A   Desconocido
11:30 PM 44.6 ° F 40.2 ° F 35.6 ° F 71% 30.09 pul 6.2 mi NNE 8.1 mph - N/A   Desconocido